St. Cloud, MN

2:48 AM CDT on June 29, 2017 (GMT -0500)
Saint Cloud Regional

Weather History for KSTC - June, 2012

Change the Weather History Date:

Thursday, June 14, 2012

  Actual Average Record
Temperature  
Mean Temperature 65 °F 65 °F  
Max Temperature 72 °F 77 °F 95 °F (1979)
Min Temperature 58 °F 53 °F 36 °F (1942)
Degree Days  
Heating Degree Days 0 3  
Month to date heating degree days 30 54  
Since 1 June heating degree days 30 54  
Since 1 July heating degree days 6746 8508  
Cooling Degree Days 0 3  
Month to date cooling degree days 57 29  
Year to date cooling degree days 108 54  
Since 1 June cooling degree days 57 29  
Growing Degree Days 14 (Base 50)    
Moisture  
Dew Point 58 °F    
Average Humidity 76    
Maximum Humidity 100    
Minimum Humidity 52    
Precipitation  
Precipitation 0.66 in 0.15 in 2.48 in (1938)
Month to date precipitation 1.28 1.88  
Year to date precipitation 15.60 10.19  
Snow  
Snow 0.00 in 0.00 in 0.00 in ()
Month to date snowfall 0.0 0.0  
Since 1 June snowfall 0.0 0.0  
Since 1 July snowfall 27.4 45.7  
Snow Depth 0.00 in    
Sea Level Pressure  
Sea Level Pressure 29.82 in    
Wind  
Wind Speed 10 mph (SE)    
Max Wind Speed 21 mph    
Max Gust Speed 35 mph    
Visibility 8 miles    
Events Rain , Thunderstorm    
T = Trace of Precipitation, MM = Missing Value Source: NWS Daily Summary

Daily Weather History Graph

Daily Weather History Graph

Search for Another Location

Airport or City:

Trip Planner

Search our weather history database for the weather conditions in past years. The results will help you decide how hot, cold, wet, or windy it might be!

Date:

Astronomy

Jun. 14, 2012 Rise Set
Actual Time 5:26 AM CDT 9:06 PM CDT
Civil Twilight 4:48 AM CDT 9:44 PM CDT
Nautical Twilight 3:58 AM CDT 10:35 PM CDT
Astronomical Twilight 2:49 AM CDT 11:44 PM CDT
Moon 2:19 AM CDT (6/14) 4:42 PM CDT (6/14)
Length of Visible Light 16h 56m
Length of Day
15h 40m
Waning Crescent, 21% of the Moon is Illuminated
Jun 14
Waning Crescent
Jun 19
New
Jun 26
First Quarter
Jul 3
Full
Jul 10
Last Quarter

Hourly Weather History & Observations

Time (CDT) Temp. Dew Point Humidity Pressure Visibility Wind Dir Wind Speed Gust Speed Precip Events Conditions
12:53 AM 66.0 °F 48.9 °F 54% 29.89 in 10.0 mi SE 11.5 mph - N/A   Clear
1:53 AM 66.0 °F 48.9 °F 54% 29.88 in 10.0 mi SSE 11.5 mph - N/A   Clear
2:53 AM 64.0 °F 50.0 °F 60% 29.84 in 10.0 mi SSE 10.4 mph 19.6 mph N/A   Clear
3:53 AM 64.0 °F 50.0 °F 60% 29.81 in 10.0 mi SE 13.8 mph 19.6 mph N/A   Mostly Cloudy
4:53 AM 63.0 °F 50.0 °F 63% 29.79 in 10.0 mi ESE 10.4 mph - N/A   Scattered Clouds
5:53 AM 64.0 °F 51.1 °F 63% 29.78 in 10.0 mi East 9.2 mph - N/A   Clear
6:44 AM 62.6 °F 51.8 °F 68% 29.85 in 10.0 mi NW 17.3 mph 24.2 mph N/A Thunderstorm Mostly Cloudy
6:53 AM 64.0 °F 51.1 °F 63% 29.86 in 10.0 mi North 10.4 mph 25.3 mph N/A Thunderstorm Mostly Cloudy
7:41 AM 59.0 °F 55.4 °F 88% 29.82 in 1.8 mi East 12.7 mph - 0.16 in Rain , Thunderstorm Heavy Thunderstorms and Rain
7:53 AM 59.0 °F 55.0 °F 87% 29.84 in 2.5 mi East 11.5 mph - 0.28 in Rain , Thunderstorm Heavy Thunderstorms and Rain
8:03 AM 59.0 °F 55.4 °F 88% 29.89 in 4.0 mi NNW 11.5 mph 17.3 mph 0.06 in Rain , Thunderstorm Thunderstorms and Rain
8:16 AM 59.0 °F 55.4 °F 88% 29.86 in 2.5 mi ENE 11.5 mph 34.5 mph 0.14 in Rain , Thunderstorm Heavy Thunderstorms and Rain
8:22 AM 59.0 °F 55.4 °F 88% 29.86 in 1.8 mi NE 11.5 mph 18.4 mph 0.22 in Rain , Thunderstorm Heavy Thunderstorms and Rain
8:29 AM 59.0 °F 55.4 °F 88% 29.85 in 2.5 mi East 13.8 mph 19.6 mph 0.29 in Rain , Thunderstorm Thunderstorms and Rain
8:36 AM 59.0 °F 55.4 °F 88% 29.79 in 5.0 mi East 18.4 mph 26.5 mph 0.31 in Rain , Thunderstorm Thunderstorms and Rain
8:50 AM 57.2 °F 55.4 °F 94% 29.78 in 4.0 mi ESE 17.3 mph 32.2 mph 0.37 in Rain , Thunderstorm Light Thunderstorms and Rain
8:53 AM 59.0 °F 55.0 °F 87% 29.80 in 7.0 mi ESE 16.1 mph 25.3 mph 0.37 in Rain , Thunderstorm Light Rain
9:08 AM 57.2 °F 55.4 °F 94% 29.77 in 10.0 mi SE 16.1 mph 24.2 mph 0.01 in   Overcast
9:53 AM 59.0 °F 55.9 °F 90% 29.81 in 10.0 mi SE 9.2 mph 18.4 mph 0.01 in   Overcast
10:53 AM 60.1 °F 57.0 °F 90% 29.80 in 10.0 mi SE 12.7 mph 19.6 mph N/A   Mostly Cloudy
11:53 AM 64.0 °F 60.1 °F 87% 29.78 in 10.0 mi SE 11.5 mph 23.0 mph N/A   Mostly Cloudy
12:53 PM 64.0 °F 60.1 °F 87% 29.79 in 10.0 mi SE 11.5 mph 18.4 mph N/A   Overcast
1:53 PM 64.9 °F 61.0 °F 87% 29.78 in 10.0 mi SE 13.8 mph - 0.00 in Rain Light Rain
2:53 PM 66.9 °F 61.0 °F 81% 29.78 in 10.0 mi SSE 15.0 mph 20.7 mph 0.00 in   Overcast
3:53 PM 68.0 °F 61.0 °F 78% 29.78 in 10.0 mi SSE 12.7 mph 18.4 mph N/A   Mostly Cloudy
4:53 PM 71.1 °F 62.1 °F 73% 29.77 in 10.0 mi SE 10.4 mph 17.3 mph N/A   Mostly Cloudy
5:53 PM 71.1 °F 63.0 °F 75% 29.77 in 10.0 mi SE 12.7 mph 18.4 mph N/A   Clear
6:53 PM 69.1 °F 64.0 °F 84% 29.78 in 10.0 mi SE 10.4 mph - N/A   Partly Cloudy
7:40 PM 69.8 °F 64.4 °F 83% 29.77 in 10.0 mi ESE 5.8 mph - N/A   Mostly Cloudy
7:53 PM 70.0 °F 64.9 °F 84% 29.77 in 10.0 mi East 4.6 mph - N/A   Mostly Cloudy
8:45 PM 69.8 °F 64.4 °F 83% 29.81 in 10.0 mi SE 6.9 mph - N/A   Overcast
8:53 PM 69.1 °F 64.9 °F 87% 29.83 in 10.0 mi Variable 3.5 mph - N/A   Overcast
9:31 PM 68.0 °F 64.4 °F 88% 29.81 in 10.0 mi SE 3.5 mph - N/A   Partly Cloudy
9:53 PM 66.9 °F 64.0 °F 90% 29.85 in 10.0 mi Calm Calm - N/A   Clear
10:53 PM 64.9 °F 64.0 °F 97% 29.88 in 6.0 mi SSE 5.8 mph - N/A   Clear
11:07 PM 66.2 °F 64.4 °F 94% 29.87 in 7.0 mi South 6.9 mph - N/A   Scattered Clouds
11:16 PM 66.2 °F 64.4 °F 94% 29.86 in 9.0 mi SSE 8.1 mph - N/A   Mostly Cloudy
11:37 PM 66.2 °F 64.4 °F 94% 29.87 in 10.0 mi SSE 9.2 mph - N/A   Partly Cloudy
11:53 PM 66.0 °F 64.0 °F 93% 29.90 in 10.0 mi SSE 6.9 mph - N/A   Clear